sat.trackr.live / text

‹ back to catalog

STARLINK-5927

NORAD 55934 · 2023-037W

PAYLOAD ACTIVE UNKNOWN

§ Identity

Operator
Country
US
Launch date
2023-03-17
Launch site
AFWTR
Launch vehicle
Mass (kg)
RCS (m²)

Purposes: comms

External: N2YO · Heavens-Above · Gunter

§ Orbital elements

Epoch: 2026-09-20T23:11:01.607712Z

Period
95.81 min
Inclination
69.9987°
Eccentricity
0.0003415
Mean motion
15.03010674 rev/d
Perigee alt
555.3 km
Apogee alt
560.0 km
Semi-major
6,935.8 km
B*
1.1933e-2
RAAN
151.9785°
Arg perigee
267.3026°
Mean anomaly
92.7745°
Rev number
19,323

§ Raw data

STARLINK-59271 55934U 23037W   26263.96599083  .00164643  00000+0  11933-1 0  99902 55934  69.9987 151.9785 0003415 267.3026  92.7745 15.03010674193230

JSON: /api/v1/satellites/55934 · /tle

For live sub-satellite position, see the globe view (requires WebGL).

§ Visibility from observer

Set your observer location to see the next 7 days of passes ≥ 10°. The values pass through the URL so the page stays shareable.

No JS? Fill the form by hand. The geolocation button needs JavaScript.